TimeHST,TemperatureF,Dew PointF,Humidity,Sea Level PressureIn,VisibilityMPH,Wind Direction,Wind SpeedMPH,Gust SpeedMPH,PrecipitationIn,Events,Conditions,WindDirDegrees,DateUTC
12:53 AM,66.9,55.9,68,30.06,10.0,North,3.5,-,N/A,,Partly Cloudy,350,2013-01-21 10:53:00
1:53 AM,69.1,55.0,61,30.05,10.0,NNE,5.8,-,N/A,,Partly Cloudy,30,2013-01-21 11:53:00
2:53 AM,69.1,55.0,61,30.04,10.0,North,4.6,-,N/A,,Partly Cloudy,10,2013-01-21 12:53:00
3:53 AM,69.1,55.9,63,30.04,10.0,NNE,10.4,-,N/A,,Scattered Clouds,20,2013-01-21 13:53:00
4:53 AM,69.1,55.9,63,30.05,10.0,NNE,9.2,-,N/A,,Scattered Clouds,30,2013-01-21 14:53:00
5:53 AM,69.1,55.9,63,30.06,10.0,NNE,5.8,-,N/A,,Scattered Clouds,30,2013-01-21 15:53:00
6:53 AM,71.1,57.9,63,30.08,10.0,NE,6.9,-,N/A,,Overcast,50,2013-01-21 16:53:00
7:53 AM,72.0,57.9,61,30.09,10.0,NE,9.2,-,N/A,,Mostly Cloudy,40,2013-01-21 17:53:00
8:53 AM,73.9,57.9,57,30.11,10.0,NNE,12.7,20.7,N/A,,Mostly Cloudy,30,2013-01-21 18:53:00
9:53 AM,75.9,55.9,50,30.13,10.0,NE,18.4,25.3,N/A,,Scattered Clouds,40,2013-01-21 19:53:00
10:53 AM,77.0,57.9,52,30.13,10.0,ENE,13.8,-,N/A,,Scattered Clouds,60,2013-01-21 20:53:00
11:53 AM,78.1,57.0,48,30.11,10.0,ENE,19.6,24.2,N/A,,Scattered Clouds,60,2013-01-21 21:53:00
12:53 PM,78.1,59.0,52,30.09,10.0,NE,15.0,25.3,N/A,,Scattered Clouds,40,2013-01-21 22:53:00
1:53 PM,79.0,59.0,50,30.07,10.0,NE,12.7,24.2,N/A,,Scattered Clouds,40,2013-01-21 23:53:00
2:53 PM,79.0,59.0,50,30.06,10.0,NNE,10.4,21.9,N/A,,Scattered Clouds,20,2013-01-22 00:53:00
3:53 PM,77.0,59.0,54,30.07,10.0,ENE,15.0,21.9,N/A,,Scattered Clouds,70,2013-01-22 01:53:00
4:53 PM,75.9,60.1,58,30.07,10.0,NE,15.0,20.7,N/A,,Scattered Clouds,50,2013-01-22 02:53:00
5:53 PM,73.9,60.1,62,30.08,10.0,ENE,16.1,23.0,N/A,,Scattered Clouds,60,2013-01-22 03:53:00
6:53 PM,73.0,57.0,57,30.09,10.0,NE,13.8,-,N/A,,Partly Cloudy,50,2013-01-22 04:53:00
7:53 PM,73.0,59.0,61,30.11,10.0,ENE,9.2,19.6,N/A,,Partly Cloudy,70,2013-01-22 05:53:00
8:53 PM,73.0,59.0,61,30.12,10.0,NE,8.1,17.3,N/A,,Partly Cloudy,50,2013-01-22 06:53:00
9:53 PM,72.0,60.1,66,30.13,10.0,ENE,5.8,-,N/A,,Partly Cloudy,70,2013-01-22 07:53:00
10:53 PM,72.0,60.1,66,30.13,10.0,ENE,9.2,-,N/A,,Partly Cloudy,60,2013-01-22 08:53:00
11:53 PM,72.0,60.1,66,30.12,10.0,NE,10.4,-,N/A,,Scattered Clouds,40,2013-01-22 09:53:00